First I — 3ESJ5 — position and weather

sailwx.info

Track history (hours):
 
Tides and Currents Weather Stations Pressure Air Temp Water Temp Dewpoint Dewpoint Depression Visibility Wind Speed Wind Dir Waves Ship Positions

First I

Last reported at 2014-Jul-24 16:06 UTC. Time now 2014-Jul-24 16:58 UTC.
Position N 24°27' E 118°01'.

Length 190 m; draft 12.9 m.

MMSI: 370317000.

Date/timePositionNaut miles runAvg speedWind from/ knotsBaromVisibWave heightAir tempDewpointWater temp
2014-Jul-24 16:06N 24°27' E 118°01'0 0.0
2014-Jul-24 15:24N 24°27' E 118°01'0 0.0
2014-Jul-24 10:30N 24°27' E 118°01'0 0.0
2014-Jul-24 09:30N 24°27' E 118°01'0 0.2
2014-Jul-24 06:33N 24°26' E 118°02'7 6.8
2014-Jul-24 05:33N 24°22' E 118°08'9 9.2
2014-Jul-24 04:33N 24°16' E 118°15'4 2.5
2014-Jul-24 03:04N 24°15' E 118°19'0 0.0
2014-Jul-24 01:28N 24°15' E 118°19'0 0.0
2014-Jul-24 00:10N 24°15' E 118°19'0 0.0
2014-Jul-23 21:16N 24°15' E 118°19'0 0.0
2014-Jul-23 18:22N 24°15' E 118°19'0 0.0
2014-Jul-23 11:22N 24°15' E 118°19'0 0.0
2014-Jul-23 09:28N 24°15' E 118°19'0 0.1
2014-Jul-23 08:10N 24°15' E 118°19'0 0.1
2014-Jul-23 07:16N 24°14' E 118°19'0 0.1
2014-Jul-23 06:29N 24°14' E 118°19'0 0.1
2014-Jul-23 05:28N 24°14' E 118°18'0 0.1
2014-Jul-23 04:22N 24°14' E 118°18'0 0.1
2014-Jul-23 03:16N 24°14' E 118°18'0 0.0
2014-Jul-23 02:28N 24°14' E 118°18'0 0.1
2014-Jul-23 01:22N 24°14' E 118°18'0 0.0
2014-Jul-23 00:22N 24°14' E 118°18'0 0.0
2014-Jul-22 23:32N 24°14' E 118°18'0 0.1
2014-Jul-22 22:32N 24°14' E 118°18'0 0.0
2014-Jul-22 21:26N 24°14' E 118°18'0 0.1
2014-Jul-22 20:28N 24°14' E 118°18'0 0.1
2014-Jul-22 19:26N 24°14' E 118°18'0 0.0
2014-Jul-22 18:32N 24°14' E 118°18'0 0.1
2014-Jul-22 17:28N 24°14' E 118°18'0 0.0
2014-Jul-22 16:32N 24°14' E 118°18'0 0.1
2014-Jul-22 15:26N 24°14' E 118°18'0 0.0
2014-Jul-22 14:26N 24°14' E 118°18'0 0.0
2014-Jul-22 13:32N 24°14' E 118°18'0 0.0
2014-Jul-22 11:26N 24°14' E 118°18'0 0.0
2014-Jul-22 10:08N 24°14' E 118°18'0 0.0
2014-Jul-22 09:20N 24°14' E 118°18'0 0.0
2014-Jul-22 08:28N 24°14' E 118°18'0 0.1
2014-Jul-22 07:22N 24°14' E 118°18'0 0.0
2014-Jul-22 06:28N 24°14' E 118°18'0 0.0
2014-Jul-22 05:28N 24°14' E 118°18'0 0.1
2014-Jul-22 04:28N 24°14' E 118°18'0 0.4
2014-Jul-22 03:34N 24°14' E 118°18'3 2.8
2014-Jul-22 02:34N 24°11' E 118°19'7 6.9
2014-Jul-22 01:33N 24°05' E 118°22'9 9.4
2014-Jul-22 00:33N 23°56' E 118°25'  
Track history (hours):
 
Tides and Currents Weather Stations Pressure Air Temp Water Temp Dewpoint Dewpoint Depression Visibility Wind Speed Wind Dir Waves Ship Positions

First I

Last reported at 2014-Jul-24 16:06 UTC. Time now 2014-Jul-24 16:58 UTC.
Position N 24°27' E 118°01'.

Length 190 m; draft 12.9 m.

MMSI: 370317000.

Date/timePositionNaut miles runAvg speedWind from/ knotsBaromVisibWave heightAir tempDewpointWater temp
2014-Jul-24 16:06N 24°27' E 118°01'0 0.0
2014-Jul-24 15:24N 24°27' E 118°01'0 0.0
2014-Jul-24 10:30N 24°27' E 118°01'0 0.0
2014-Jul-24 09:30N 24°27' E 118°01'0 0.2
2014-Jul-24 06:33N 24°26' E 118°02'7 6.8
2014-Jul-24 05:33N 24°22' E 118°08'9 9.2
2014-Jul-24 04:33N 24°16' E 118°15'4 2.5
2014-Jul-24 03:04N 24°15' E 118°19'0 0.0
2014-Jul-24 01:28N 24°15' E 118°19'0 0.0
2014-Jul-24 00:10N 24°15' E 118°19'0 0.0
2014-Jul-23 21:16N 24°15' E 118°19'0 0.0
2014-Jul-23 18:22N 24°15' E 118°19'0 0.0
2014-Jul-23 11:22N 24°15' E 118°19'0 0.0
2014-Jul-23 09:28N 24°15' E 118°19'0 0.1
2014-Jul-23 08:10N 24°15' E 118°19'0 0.1
2014-Jul-23 07:16N 24°14' E 118°19'0 0.1
2014-Jul-23 06:29N 24°14' E 118°19'0 0.1
2014-Jul-23 05:28N 24°14' E 118°18'0 0.1
2014-Jul-23 04:22N 24°14' E 118°18'0 0.1
2014-Jul-23 03:16N 24°14' E 118°18'0 0.0
2014-Jul-23 02:28N 24°14' E 118°18'0 0.1
2014-Jul-23 01:22N 24°14' E 118°18'0 0.0
2014-Jul-23 00:22N 24°14' E 118°18'0 0.0
2014-Jul-22 23:32N 24°14' E 118°18'0 0.1
2014-Jul-22 22:32N 24°14' E 118°18'0 0.0
2014-Jul-22 21:26N 24°14' E 118°18'0 0.1
2014-Jul-22 20:28N 24°14' E 118°18'0 0.1
2014-Jul-22 19:26N 24°14' E 118°18'0 0.0
2014-Jul-22 18:32N 24°14' E 118°18'0 0.1
2014-Jul-22 17:28N 24°14' E 118°18'0 0.0
2014-Jul-22 16:32N 24°14' E 118°18'0 0.1
2014-Jul-22 15:26N 24°14' E 118°18'0 0.0
2014-Jul-22 14:26N 24°14' E 118°18'0 0.0
2014-Jul-22 13:32N 24°14' E 118°18'0 0.0
2014-Jul-22 11:26N 24°14' E 118°18'0 0.0
2014-Jul-22 10:08N 24°14' E 118°18'0 0.0
2014-Jul-22 09:20N 24°14' E 118°18'0 0.0
2014-Jul-22 08:28N 24°14' E 118°18'0 0.1
2014-Jul-22 07:22N 24°14' E 118°18'0 0.0
2014-Jul-22 06:28N 24°14' E 118°18'0 0.0
2014-Jul-22 05:28N 24°14' E 118°18'0 0.1
2014-Jul-22 04:28N 24°14' E 118°18'0 0.4
2014-Jul-22 03:34N 24°14' E 118°18'3 2.8
2014-Jul-22 02:34N 24°11' E 118°19'7 6.9
2014-Jul-22 01:33N 24°05' E 118°22'9 9.4
2014-Jul-22 00:33N 23°56' E 118°25'  

Dump ship's entire track history